Hourly Data Report for October 03, 2015

All times are specified in Local Standard Time (LST). Add 1 hour to adjust for Daylight Saving Time where and when it is observed.

KAMLOOPS A
BRITISH COLUMBIA

50°42'09.000" N
120°26'55.000" W
345.30 m
1163781
71887
YKA

Download Data

Hourly Data (October 2015)
Hourly Data Report for October 3, 2015
Temp Definition
°C
Dew Point Temp Definition
°C
Rel Hum Definition
%
Wind Dir Definition
10's deg

Wind Spd Definition
km/h
Visibility Definition
km
Stn Press Definition
kPa
Hmdx Definition


Wind Chill Definition


Weather Definition


TIME
00:00 Legend Double Dagger 10.9 3.3 59 28 33 48.3 98.14     LegendNANA
01:00 Legend Double Dagger 10.5 2.6 58 27 35 48.3 98.17     Mostly Cloudy
02:00 Legend Double Dagger 10.3 2.0 56 28 37 64.4 98.29     LegendNANA
03:00 Legend Double Dagger 9.7 1.9 58 28 41 64.4 98.29     LegendNANA
04:00 Legend Double Dagger 8.9 1.1 58 28 40 64.4 98.34     Mostly Cloudy
05:00 Legend Double Dagger 8.3 0.8 59 28 36 64.4 98.44     LegendNANA
06:00 Legend Double Dagger 8.0 0.3 58 27 39 64.4 98.52     LegendNANA
07:00 Legend Double Dagger 7.7 0.5 60 27 33 64.4 98.58     Mainly Clear
08:00 Legend Double Dagger 8.4 0.2 56 27 30 64.4 98.57     LegendNANA
09:00 Legend Double Dagger 9.1 0.3 54 26 32 64.4 98.58     LegendNANA
10:00 Legend Double Dagger 10.3 1.2 53 28 28 64.4 98.56     Mainly Clear
11:00 Legend Double Dagger 11.2 1.2 50 28 35 64.4 98.56     LegendNANA
12:00 Legend Double Dagger 12.2 0.7 45 28 32 64.4 98.48     LegendNANA
13:00 Legend Double Dagger 13.5 0.9 42 28 23 64.4 98.41     Clear
14:00 Legend Double Dagger 15.0 1.9 41 28 21 64.4 98.30     LegendNANA
15:00 Legend Double Dagger 15.7 2.2 40 28 18 64.4 98.26     LegendNANA
16:00 Legend Double Dagger 15.0 2.6 43 11 12 64.4 98.23     Clear
17:00 Legend Double Dagger 14.1 2.4 45 10 7 64.4 98.25     LegendNANA
18:00 Legend Double Dagger 12.6 2.2 49 14 8 64.4 98.29     LegendNANA
19:00 Legend Double Dagger 10.9 2.8 57 18 5 64.4 98.32     Clear
20:00 Legend Double Dagger 9.9 2.8 61 16 5 64.4 98.33     LegendNANA
21:00 Legend Double Dagger 7.6 1.3 64 32 7 64.4 98.31     LegendNANA
22:00 Legend Double Dagger 6.2 1.2 70 36 2 64.4 98.31     Clear
23:00 Legend Double Dagger 5.2 1.3 76 36 2 64.4 98.33     LegendNANA

Notes on Data Quality.

Legend

  • E = Estimated
  • M = Missing
  • NA = Not Available
  • ‡ = Partner data that is not subject to review by the National Climate Archives
Date modified: